KC3ROS Weather Reports


Display with metric or nautical units.
time (UTC)temp
F
wind
direction
speed
MPH
gust
MPH
rain 1hr
in
rain 24hr
in
rain mn
in
humidity
%
barometer
mb
20260508103910 44 208 0.0 2.0 0.00 0.00 0.00 74 1011.6
20260508103407 44 167 2.0 4.0 0.00 0.00 0.00 73 1011.4
20260508102904 43 188 2.0 4.0 0.00 0.00 0.00 73 1011.6
20260508102403 43 160 2.0 4.0 0.00 0.00 0.00 74 1011.6
20260508101859 43 219 2.0 4.0 0.00 0.00 0.00 74 1011.4
20260508101357 43 180 2.0 4.0 0.00 0.00 0.00 75 1011.7
20260508100854 42 193 2.0 5.0 0.00 0.00 0.00 76 1011.7
20260508100353 42 181 0.0 4.0 0.00 0.00 0.00 76 1011.6
20260508095848 42 181 1.0 3.0 0.00 0.00 0.00 76 1011.5
20260508095346 43 174 0.0 3.0 0.00 0.00 0.00 75 1011.7
20260508094842 43 108 2.0 3.0 0.00 0.00 0.00 76 1011.7
20260508094339 43 187 0.0 4.0 0.00 0.00 0.00 75 1011.8
20260508093836 44 157 0.0 3.0 0.00 0.00 0.00 75 1011.8
20260508093334 44 213 0.0 3.0 0.00 0.00 0.00 75 1011.7
20260508092831 44 120 1.0 4.0 0.00 0.00 0.00 74 1011.8
20260508092329 44 159 0.0 3.0 0.00 0.00 0.00 76 1011.9
20260508091827 44 128 0.0 2.0 0.00 0.00 0.00 76 1011.8
20260508091323 44 191 0.0 2.0 0.00 0.00 0.00 78 1011.8
20260508090821 44 140 0.0 2.0 0.00 0.00 0.00 76 1011.8
20260508090320 44 188 0.0 3.0 0.00 0.00 0.00 76 1011.9
20260508085815 44 213 1.0 3.0 0.00 0.00 0.00 76 1011.9
20260508085312 44 44 0.0 2.0 0.00 0.00 0.00 77 1011.8
20260508084808 44 219 2.0 3.0 0.00 0.00 0.00 75 1012.0
20260508084306 44 334 1.0 5.0 0.00 0.00 0.00 77 1012.0
20260508083803 44 180 0.0 3.0 0.00 0.00 0.00 76 1011.9
20260508083300 43 207 2.0 3.0 0.00 0.00 0.00 75 1012.1
20260508082800 43 133 0.0 4.0 0.00 0.00 0.00 77 1011.9
20260508082258 43 210 2.0 5.0 0.00 0.00 0.00 76 1011.9
20260508081755 43 127 2.0 3.0 0.00 0.00 0.00 75 1012.1
20260508081252 43 159 0.0 4.0 0.00 0.00 0.00 75 1012.0
20260508080749 43 224 1.0 6.0 0.00 0.00 0.00 76 1011.8
20260508080247 43 178 0.0 3.0 0.00 0.00 0.00 77 1011.9
20260508075743 43 163 2.0 2.0 0.00 0.00 0.00 79 1012.0
20260508075240 44 87 2.0 2.0 0.00 0.00 0.00 75 1011.9
20260508074738 44 66 0.0 2.0 0.00 0.00 0.00 75 1012.1
20260508074235 44 145 0.0 2.0 0.00 0.00 0.00 72 1011.6
20260508073732 44 190 2.0 5.0 0.00 0.00 0.00 70 1011.8
20260508073230 44 204 1.0 3.0 0.00 0.00 0.00 71 1011.8
20260508072725 44 189 1.0 2.0 0.00 0.00 0.00 70 1011.6
20260508072222 44 170 0.0 3.0 0.00 0.00 0.00 70 1011.5
20260508071720 44 131 1.0 3.0 0.00 0.00 0.00 71 1011.6
20260508071218 44 198 1.0 3.0 0.00 0.00 0.00 70 1011.7
20260508070715 44 146 0.0 2.0 0.00 0.00 0.00 71 1011.7
20260508070214 44 159 0.0 2.0 0.00 0.00 0.00 72 1011.7
20260508065711 44 186 0.0 2.0 0.00 0.00 0.00 72 1011.8
20260508065209 43 176 0.0 2.0 0.00 0.00 0.00 72 1011.8
20260508064706 43 185 1.0 2.0 0.00 0.00 0.00 75 1011.9
20260508064204 43 208 0.0 2.0 0.00 0.00 0.00 77 1011.8
20260508063701 43 80 0.0 3.0 0.00 0.00 0.00 76 1011.9
20260508063159 44 89 1.0 2.0 0.00 0.00 0.00 73 1012.2
20260508062656 44 105 0.0 1.0 0.00 0.00 0.00 72 1012.2
20260508062153 44 212 0.0 2.0 0.00 0.00 0.00 72 1012.2
20260508061650 44 180 1.0 4.0 0.00 0.00 0.00 70 1012.2
20260508061148 44 167 1.0 4.0 0.00 0.00 0.00 70 1012.1
20260508060644 44 166 0.0 3.0 0.00 0.00 0.00 70 1012.1
20260508060142 44 120 1.0 3.0 0.00 0.00 0.00 69 1012.2
20260508055637 44 165 0.0 2.0 0.00 0.00 0.00 71 1012.3
20260508055134 44 122 0.0 3.0 0.00 0.00 0.00 69 1012.3
20260508054630 45 180 0.0 3.0 0.00 0.00 0.00 70 1012.1
20260508054128 45 171 2.0 3.0 0.00 0.00 0.00 68 1012.1
20260508053625 45 150 0.0 2.0 0.00 0.00 0.00 69 1012.2
20260508053122 45 107 1.0 2.0 0.00 0.00 0.00 68 1012.4
20260508052620 45 180 0.0 2.0 0.00 0.00 0.00 68 1012.5
20260508052116 45 87 1.0 3.0 0.00 0.00 0.00 68 1012.4
20260508051613 45 185 1.0 2.0 0.00 0.00 0.00 69 1012.5
20260508051108 45 201 0.0 2.0 0.00 0.00 0.00 69 1012.6
20260508050604 45 163 0.0 3.0 0.00 0.00 0.00 68 1012.5
20260508045558 45 200 0.0 2.0 0.00 0.00 0.00 69 1012.6
20260508045056 45 188 0.0 4.0 0.00 0.00 0.00 70 1012.6
20260508044553 45 128 1.0 2.0 0.00 0.00 0.00 71 1012.5
20260508044049 45 121 0.0 2.0 0.00 0.00 0.00 71 1012.6
20260508043546 45 124 0.0 2.0 0.00 0.00 0.00 71 1012.7
20260508043043 44 160 0.0 2.0 0.00 0.00 0.00 72 1012.5
20260508042539 44 110 0.0 2.0 0.00 0.00 0.00 73 1012.4
20260508042037 44 89 0.0 1.0 0.00 0.00 0.00 72 1012.3
20260508041533 45 97 0.0 1.0 0.00 0.00 0.00 72 1012.3
20260508041030 45 89 0.0 2.0 0.00 0.00 0.00 69 1012.3
20260508040527 46 114 0.0 2.0 0.00 0.00 0.00 68 1012.5
20260508040024 46 171 0.0 2.0 0.00 0.00 0.00 69 1012.2
20260508035521 45 135 0.0 1.0 0.00 0.00 0.00 69 1012.3
20260508035018 46 119 0.0 2.0 0.00 0.00 0.00 68 1012.5
20260508034515 46 174 0.0 2.0 0.00 0.00 0.00 67 1012.2
20260508034012 46 154 0.0 2.0 0.00 0.00 0.00 67 1012.3
20260508033510 46 132 0.0 1.0 0.00 0.00 0.00 66 1012.3
20260508033008 46 164 0.0 1.0 0.00 0.00 0.00 64 1012.2
20260508032504 47 135 0.0 1.0 0.00 0.00 0.00 62 1012.1
20260508032002 47 38 0.0 1.0 0.00 0.00 0.00 60 1012.2
20260508031459 47 15 0.0 1.0 0.00 0.00 0.00 60 1012.5
20260508030954 47 31 0.0 2.0 0.00 0.00 0.00 60 1012.4
20260508030451 46 309 0.0 2.0 0.00 0.00 0.00 62 1012.3
20260508025949 47 257 0.0 1.0 0.00 0.00 0.00 63 1012.6
20260508025445 48 304 0.0 2.0 0.00 0.00 0.00 63 1012.6
20260508024943 48 354 1.0 2.0 0.00 0.00 0.00 60 1012.6
20260508024438 48 355 2.0 3.0 0.00 0.00 0.00 61 1012.6
20260508023935 48 358 2.0 2.0 0.00 0.00 0.00 61 1012.6
20260508023432 48 18 2.0 3.0 0.00 0.00 0.00 61 1012.4
20260508022929 48 9 2.0 3.0 0.00 0.00 0.00 62 1012.3
20260508022425 48 346 3.0 4.0 0.00 0.00 0.00 63 1012.3
20260508021922 48 27 1.0 3.0 0.00 0.00 0.00 63 1012.1
20260508021418 49 346 2.0 4.0 0.00 0.00 0.00 61 1012.2
20260508020914 49 14 1.0 4.0 0.00 0.00 0.00 62 1012.0
20260508020412 49 350 3.0 3.0 0.00 0.00 0.00 62 1012.2
20260508015909 49 1 1.0 3.0 0.00 0.00 0.00 62 1012.0
20260508015407 49 350 1.0 4.0 0.00 0.00 0.00 61 1012.1
20260508014903 49 348 3.0 4.0 0.00 0.00 0.00 61 1012.0
20260508014400 49 4 2.0 4.0 0.00 0.00 0.00 61 1011.8
20260508013855 49 359 2.0 4.0 0.00 0.00 0.00 61 1011.8
20260508013352 49 335 3.0 4.0 0.00 0.00 0.00 61 1011.8
20260508012849 50 11 2.0 4.0 0.00 0.00 0.00 60 1011.8
20260508012346 50 347 2.0 3.0 0.00 0.00 0.00 60 1011.9
20260508011844 50 25 2.0 5.0 0.00 0.00 0.00 59 1011.7
20260508011342 50 13 2.0 3.0 0.00 0.00 0.00 58 1011.8
20260508010839 50 5 2.0 3.0 0.00 0.00 0.00 57 1011.7
20260508010336 51 354 3.0 3.0 0.00 0.00 0.00 56 1011.3
20260508005833 51 5 2.0 4.0 0.00 0.00 0.00 55 1011.3
20260508005330 51 9 2.0 3.0 0.00 0.00 0.00 56 1011.1
20260508004826 51 33 3.0 4.0 0.00 0.00 0.00 54 1011.3
20260508004322 51 1 1.0 4.0 0.00 0.00 0.00 53 1011.1
20260508003819 52 345 2.0 4.0 0.00 0.00 0.00 52 1011.1
20260508003316 52 331 3.0 7.0 0.00 0.00 0.00 51 1011.1
20260508002813 52 2 3.0 6.0 0.00 0.00 0.00 50 1011.1
20260508002310 52 309 2.0 7.0 0.00 0.00 0.00 49 1010.8
20260508001806 53 228 2.0 6.0 0.00 0.00 0.00 49 1010.7
20260508001302 53 234 3.0 9.0 0.00 0.00 0.00 50 1010.7
20260508000758 53 321 2.0 4.0 0.00 0.00 0.00 49 1010.6
20260508000257 53 322 2.0 8.0 0.00 0.00 0.00 48 1010.4
20260507235751 54 42 1.0 4.0 0.00 0.00 0.00 49 1010.4
20260507235249 54 326 2.0 5.0 0.00 0.00 0.00 49 1010.4
20260507234746 54 315 2.0 10.0 0.00 0.00 0.00 45 1010.3
20260507234242 55 329 5.0 11.0 0.00 0.00 0.00 45 1010.4
20260507233738 55 346 4.0 8.0 0.00 0.00 0.00 45 1010.2
20260507233237 55 287 7.0 15.0 0.00 0.00 0.00 46 1010.1
20260507232734 55 60 3.0 11.0 0.00 0.00 0.00 46 1010.2
20260507232231 55 0 5.0 9.0 0.00 0.00 0.00 47 1009.9
20260507231727 55 355 2.0 9.0 0.00 0.00 0.00 46 1010.1
20260507231224 55 333 4.0 10.0 0.00 0.00 0.00 45 1010.0
20260507230721 56 343 5.0 12.0 0.00 0.00 0.00 44 1010.0
20260507230219 57 1 2.0 4.0 0.00 0.00 0.00 44 1010.1
20260507225717 57 12 1.0 6.0 0.00 0.00 0.00 43 1009.8
20260507225215 55 305 5.0 8.0 0.00 0.00 0.00 44 1009.8
20260507224710 56 324 5.0 9.0 0.00 0.00 0.00 43 1009.9
20260507224207 56 346 3.0 7.0 0.00 0.00 0.00 42 1009.7
20260507223703 57 276 4.0 9.0 0.00 0.00 0.00 42 1009.7
20260507223200 57 327 3.0 9.0 0.00 0.00 0.00 44 1009.6
20260507222657 56 266 3.0 17.0 0.00 0.00 0.00 43 1009.6
20260507222153 57 32 2.0 5.0 0.00 0.00 0.00 43 1009.6
20260507221650 57 293 3.0 8.0 0.00 0.00 0.00 44 1009.4
20260507221146 58 253 4.0 10.0 0.00 0.00 0.00 40 1009.4
20260507220643 60 339 3.0 5.0 0.00 0.00 0.00 41 1009.2
20260507220142 59 19 3.0 9.0 0.00 0.00 0.00 40 1009.0
20260507215637 57 314 3.0 5.0 0.00 0.00 0.00 40 1009.4
20260507215135 58 35 4.0 5.0 0.00 0.00 0.00 43 1009.2
20260507214632 59 0 2.0 8.0 0.00 0.00 0.00 42 1009.1
20260507214128 59 347 5.0 8.0 0.00 0.00 0.00 39 1009.1
20260507213625 59 0 2.0 4.0 0.00 0.00 0.00 41 1008.9
20260507213122 58 342 4.0 4.0 0.00 0.00 0.00 43 1008.9
20260507212618 59 32 2.0 4.0 0.00 0.00 0.00 41 1009.0
20260507212115 59 316 5.0 7.0 0.00 0.00 0.00 42 1009.0
20260507211612 56 343 3.0 5.0 0.00 0.00 0.00 45 1009.0
20260507211107 57 31 2.0 7.0 0.00 0.00 0.00 41 1009.0
20260507210605 57 226 1.0 8.0 0.00 0.00 0.00 42 1009.0
20260507205558 61 295 3.0 10.0 0.00 0.00 0.00 39 1008.7
20260507205054 60 210 1.0 7.0 0.00 0.00 0.00 45 1008.6
20260507204551 61 6 2.0 5.0 0.00 0.00 0.00 42 1008.8
20260507204048 59 216 1.0 7.0 0.00 0.00 0.00 39 1009.0
20260507203546 59 196 5.0 10.0 0.00 0.00 0.00 38 1008.9
20260507203043 58 244 1.0 4.0 0.00 0.00 0.00 44 1008.6
20260507202539 58 37 2.0 4.0 0.00 0.00 0.00 41 1008.8
20260507202035 59 300 3.0 7.0 0.00 0.00 0.00 40 1008.9
20260507201531 61 334 4.0 11.0 0.00 0.00 0.00 39 1008.8
20260507201027 57 353 1.0 4.0 0.00 0.00 0.00 40 1008.9
20260507200523 59 262 9.0 12.0 0.00 0.00 0.00 39 1009.1
20260507200019 59 251 4.0 7.0 0.00 0.00 0.00 39 1009.1
20260507195517 60 316 4.0 10.0 0.00 0.00 0.00 40 1008.9
20260507195014 59 201 3.0 7.0 0.00 0.00 0.00 40 1009.1
20260507194510 60 350 4.0 10.0 0.00 0.00 0.00 39 1009.1
20260507194007 59 32 4.0 5.0 0.00 0.00 0.00 38 1009.1
20260507193504 59 273 3.0 9.0 0.00 0.00 0.00 39 1009.3
20260507193000 60 324 3.0 7.0 0.00 0.00 0.00 41 1009.3
20260507192456 60 3 4.0 7.0 0.00 0.00 0.00 40 1009.2
20260507191954 57 169 3.0 5.0 0.00 0.00 0.00 41 1009.2
20260507191449 58 294 7.0 12.0 0.00 0.00 0.00 41 1009.4
20260507190946 59 173 2.0 4.0 0.00 0.00 0.00 42 1009.1
20260507190444 60 263 6.0 9.0 0.00 0.00 0.00 40 1009.1
20260507185942 60 30 1.0 9.0 0.00 0.00 0.00 45 1009.0
20260507185439 58 329 4.0 13.0 0.00 0.00 0.00 40 1009.1
20260507184936 61 200 5.0 8.0 0.00 0.00 0.00 40 1009.3
20260507184434 60 201 0.0 10.0 0.00 0.00 0.00 42 1009.3
20260507183932 58 32 2.0 4.0 0.00 0.00 0.00 44 1009.5
20260507183428 59 303 3.0 7.0 0.00 0.00 0.00 46 1009.3
20260507182926 59 14 2.0 7.0 0.00 0.00 0.00 46 1009.4
20260507182421 57 254 2.0 7.0 0.00 0.00 0.00 46 1009.4
20260507181918 56 60 0.0 9.0 0.00 0.00 0.00 46 1009.4
20260507181414 57 355 3.0 6.0 0.00 0.00 0.00 49 1009.5
20260507180911 57 255 2.0 10.0 0.00 0.00 0.00 44 1009.6
20260507180407 59 163 2.0 5.0 0.00 0.00 0.00 42 1009.6
20260507175903 58 215 4.0 10.0 0.00 0.00 0.00 47 1009.5
20260507175400 59 224 6.0 14.0 0.00 0.00 0.00 45 1009.5
20260507174858 58 276 3.0 11.0 0.00 0.00 0.00 43 1009.6
20260507174355 57 245 4.0 8.0 0.00 0.00 0.00 46 1009.6
20260507173853 58 39 5.0 6.0 0.00 0.00 0.00 44 1009.8
20260507173349 59 319 5.0 7.0 0.00 0.00 0.00 48 1009.7
20260507172846 58 245 3.0 5.0 0.00 0.00 0.00 48 1009.6
20260507172342 57 212 4.0 7.0 0.00 0.00 0.00 50 1009.9
20260507171838 58 260 7.0 11.0 0.00 0.00 0.00 44 1009.8
20260507171335 59 261 4.0 10.0 0.00 0.00 0.00 46 1010.0
20260507170832 58 186 4.0 10.0 0.00 0.00 0.00 48 1010.1
20260507170329 59 229 4.0 9.0 0.00 0.00 0.00 48 1010.2
20260507165825 57 64 3.0 9.0 0.00 0.00 0.00 51 1010.0
20260507165321 58 196 3.0 6.0 0.00 0.00 0.00 51 1010.1
20260507164817 57 193 5.0 11.0 0.00 0.00 0.00 47 1010.3
20260507164314 57 219 6.0 12.0 0.00 0.00 0.00 50 1010.3
20260507163811 58 260 3.0 11.0 0.00 0.00 0.00 54 1010.1
20260507163309 57 232 5.0 9.0 0.00 0.00 0.00 53 1010.2
20260507162805 55 30 0.0 3.0 0.00 0.00 0.00 55 1010.4
20260507162301 55 357 2.0 6.0 0.00 0.00 0.00 54 1010.4
20260507161758 55 11 0.0 3.0 0.00 0.00 0.00 53 1010.3
20260507161254 57 31 2.0 5.0 0.00 0.00 0.00 52 1010.4
20260507160750 56 261 5.0 5.0 0.00 0.00 0.00 53 1010.3
20260507160247 54 283 2.0 5.0 0.00 0.00 0.00 56 1010.4
20260507155743 57 185 4.0 8.0 0.00 0.00 0.00 48 1010.5
20260507155239 57 260 2.0 7.0 0.00 0.00 0.00 49 1010.7
20260507154736 57 219 8.0 11.0 0.00 0.00 0.00 46 1010.6
20260507154234 56 268 2.0 4.0 0.00 0.00 0.00 54 1010.6
20260507153730 55 292 0.0 12.0 0.00 0.00 0.00 55 1010.6
20260507153226 53 17 2.0 4.0 0.00 0.00 0.00 59 1010.7
20260507152723 53 313 2.0 3.0 0.00 0.00 0.00 58 1010.9
20260507152219 55 351 3.0 6.0 0.00 0.00 0.00 54 1010.6
20260507151715 55 244 4.0 10.0 0.00 0.00 0.00 53 1010.9
20260507151212 55 76 5.0 5.0 0.00 0.00 0.00 57 1010.9
20260507150709 55 153 0.0 4.0 0.00 0.00 0.00 51 1011.0
20260507150206 54 243 0.0 4.0 0.00 0.00 0.00 59 1011.1
20260507145701 53 306 0.0 4.0 0.00 0.00 0.00 53 1011.1
20260507145158 52 307 3.0 7.0 0.00 0.00 0.00 55 1011.4
20260507144655 53 257 2.0 5.0 0.00 0.00 0.00 59 1011.4
20260507144153 53 232 3.0 12.0 0.00 0.00 0.00 53 1011.4
20260507143650 54 84 2.0 4.0 0.00 0.00 0.00 58 1011.4
20260507143147 54 200 6.0 8.0 0.00 0.00 0.00 56 1011.6
20260507142642 53 176 1.0 6.0 0.00 0.00 0.00 60 1011.6
20260507142139 53 236 4.0 9.0 0.00 0.00 0.00 63 1011.7
20260507141635 53 209 3.0 8.0 0.00 0.00 0.00 64 1011.7
20260507141132 52 297 5.0 8.0 0.00 0.00 0.00 63 1011.8
20260507140629 52 185 2.0 7.0 0.00 0.00 0.00 64 1011.9
20260507140126 51 258 4.0 5.0 0.00 0.00 0.00 66 1012.0
20260507135623 51 216 4.0 8.0 0.00 0.00 0.00 65 1012.0
20260507135121 51 311 4.0 9.0 0.00 0.00 0.00 67 1012.2
20260507134617 51 210 3.0 6.0 0.00 0.00 0.00 68 1012.1
20260507134113 51 250 1.0 6.0 0.00 0.00 0.00 68 1012.0
20260507133609 50 226 5.0 7.0 0.00 0.00 0.00 69 1012.3
20260507133107 50 206 4.0 8.0 0.00 0.00 0.00 67 1011.9
20260507132603 50 142 0.0 9.0 0.00 0.00 0.00 67 1012.0
20260507132100 49 245 3.0 5.0 0.00 0.00 0.00 70 1012.0
20260507131557 50 222 3.0 4.0 0.00 0.00 0.00 71 1012.1
20260507131054 49 197 2.0 3.0 0.00 0.00 0.00 74 1012.2
20260507130551 48 185 1.0 7.0 0.00 0.00 0.00 75 1012.2
20260507130049 48 203 1.0 3.0 0.00 0.00 0.00 77 1012.2
20260507125547 47 215 2.0 5.0 0.00 0.00 0.00 76 1012.1
20260507125044 47 173 1.0 3.0 0.00 0.00 0.00 77 1012.2
20260507124540 47 208 3.0 4.0 0.00 0.00 0.00 78 1012.2
20260507124038 46 51 3.0 3.0 0.00 0.00 0.00 82 1012.2
20260507123536 46 206 2.0 5.0 0.00 0.00 0.00 81 1012.2
20260507123033 45 211 2.0 4.0 0.00 0.00 0.00 82 1012.1
20260507122528 45 217 3.0 5.0 0.00 0.00 0.00 85 1012.1
20260507122024 44 214 0.0 3.0 0.00 0.00 0.00 85 1012.3
20260507121520 44 248 0.0 4.0 0.00 0.00 0.00 86 1012.1
20260507121016 43 185 1.0 2.0 0.00 0.00 0.00 87 1012.0
20260507120512 42 175 0.0 3.0 0.00 0.00 0.00 88 1012.0
20260507120010 42 210 1.0 3.0 0.00 0.00 0.00 89 1012.1
20260507115505 42 169 0.0 2.0 0.00 0.00 0.00 92 1012.2
20260507115001 41 249 0.0 2.0 0.00 0.00 0.00 94 1012.2
20260507114458 41 187 0.0 3.0 0.00 0.00 0.00 95 1012.1
20260507113955 41 196 1.0 2.0 0.00 0.00 0.00 95 1012.1
20260507113452 40 186 0.0 3.0 0.00 0.00 0.00 97 1012.2
20260507112949 40 192 0.0 2.0 0.00 0.00 0.00 97 1012.1
20260507112447 39 193 0.0 2.0 0.00 0.00 0.00 98 1011.8
20260507111943 39 186 0.0 1.0 0.00 0.00 0.00 97 1011.9
20260507111441 39 147 0.0 2.0 0.00 0.00 0.00 97 1012.0
20260507110937 39 97 0.0 2.0 0.00 0.00 0.00 97 1011.9
20260507110433 39 143 0.0 2.0 0.00 0.00 0.00 97 1011.9
20260507105930 38 180 0.0 1.0 0.00 0.00 0.00 98 1011.8
20260507105427 38 120 1.0 2.0 0.00 0.00 0.00 97 1011.7
20260507104923 39 136 1.0 2.0 0.00 0.00 0.00 97 1011.8
20260507104421 39 150 0.0 2.0 0.00 0.00 0.00 97 1011.7